Location: Unspecified
(47.9110°N, 14.3980°E)
Time: 21:09:31
(UTC+00:00)

Sich 1 - Pass Details

Date: 06 August 2020
Orbit: 593 x 626 km, 82.5° (Epoch: 22 September)

Event Time Altitude Azimuth Distance (km) Brightness Sun altitude
Exits shadow 19:30:37 - 168° (SSE) 2,398 5.6 -9.5°
Reaches altitude 10° 19:31:40 10° 165° (SSE) 1,991 5.2 -9.6°
Maximum altitude 19:35:52 45° 93° (E) 858 3.4 -10.2°
Drops below altitude 10° 19:40:07 10° 21° (NNE) 2,013 5.9 -10.7°
Sets 19:42:26 0° 15° (NNE) 2,925 6.9 -11.0°
